This is the latest recevied weather packets stored in our database for station/object IR3AS. If no packets are shown the sender has not sent any weather packets the latest 10 day(s).
| Time | Temp. | Humidity | Pressure | Rain* | Wind** | Luminosity | Snow |
|---|---|---|---|---|---|---|---|
| 1777559465 | 5.56° C | 78% | 859.9 hPa | 0 mm | - | - | - |
| 1777559165 | 4.44° C | 78% | 860.1 hPa | 0 mm | - | - | - |
| 1777558865 | 4.44° C | 77% | 860 hPa | 0 mm | - | - | - |
| 1777558565 | 4.44° C | 78% | 860.1 hPa | 0 mm | - | - | - |
| 1777558265 | 4.44° C | 78% | 860.2 hPa | 0 mm | - | - | - |
| 1777557965 | 4.44° C | 77% | 860.3 hPa | 0 mm | - | - | - |
| 1777557665 | 5° C | 77% | 860.3 hPa | 0 mm | - | - | - |
| 1777557365 | 5° C | 77% | 860.4 hPa | 0 mm | - | - | - |
| 1777557066 | 5° C | 76% | 860.4 hPa | 0 mm | - | - | - |
| 1777556766 | 5.56° C | 76% | 860.6 hPa | 0 mm | - | - | - |
| 1777556466 | 6.11° C | 76% | 860.4 hPa | 0 mm | - | - | - |
| 1777556166 | 6.67° C | 76% | 860.4 hPa | 0 mm | - | - | - |
| 1777555866 | 6.67° C | 75% | 860.3 hPa | 0 mm | - | - | - |
| 1777555566 | 7.22° C | 75% | 860.3 hPa | 0 mm | - | - | - |
| 1777555266 | 7.78° C | 76% | 860.1 hPa | 0 mm | - | - | - |
| 1777554967 | 8.33° C | 76% | 860.1 hPa | 0 mm | - | - | - |
| 1777554666 | 8.89° C | 77% | 859.9 hPa | 0 mm | - | - | - |
| 1777554366 | 8.33° C | 78% | 859.9 hPa | 0 mm | - | - | - |
| 1777554066 | 7.78° C | 77% | 860 hPa | 0 mm | - | - | - |
| 1777553766 | 8.33° C | 78% | 859.9 hPa | 0 mm | - | - | - |
| 1777553467 | 8.33° C | 79% | 859.8 hPa | 0 mm | - | - | - |
| 1777553166 | 7.78° C | 82% | 859.8 hPa | 0 mm | - | - | - |
| 1777552866 | 6.67° C | 85% | 859.6 hPa | 0 mm | - | - | - |
| 1777552566 | 5.56° C | 85% | 859.4 hPa | 0 mm | - | - | - |
| 1777552266 | 4.44° C | 86% | 859.7 hPa | 0 mm | - | - | - |
* Rain latest hour (hover to see other rain measurements)
** Current wind speed in m/s (hover to see current wind gust speed)